TimeCDT,TemperatureF,Dew PointF,Humidity,Sea Level PressureIn,VisibilityMPH,Wind Direction,Wind SpeedMPH,Gust SpeedMPH,PrecipitationIn,Events,Conditions,WindDirDegrees,DateUTC
12:15 AM,57.2,-9999,N/A,29.57,9.0,SSW,5.8,-,N/A,,Clear,200,2013-05-14 05:15:00
12:35 AM,59.0,-9999,N/A,29.57,10.0,SSW,8.1,-,N/A,,Clear,200,2013-05-14 05:35:00
12:55 AM,57.2,-9999,N/A,29.56,10.0,South,8.1,-,N/A,,Clear,190,2013-05-14 05:55:00
1:15 AM,57.2,-9999,N/A,29.56,10.0,SSW,8.1,-,N/A,,Clear,200,2013-05-14 06:15:00
1:35 AM,57.2,-9999,N/A,29.55,10.0,SSW,8.1,-,N/A,,Clear,200,2013-05-14 06:35:00
1:55 AM,57.2,-9999,N/A,29.54,10.0,SSW,6.9,-,N/A,,Clear,200,2013-05-14 06:55:00
2:15 AM,57.2,-9999,N/A,29.54,10.0,SSW,8.1,-,N/A,,Clear,200,2013-05-14 07:15:00
2:35 AM,59.0,-9999,N/A,29.53,10.0,South,10.4,-,N/A,,Clear,190,2013-05-14 07:35:00
2:55 AM,57.2,-9999,N/A,29.51,10.0,South,9.2,-,N/A,,Clear,190,2013-05-14 07:55:00
3:15 AM,59.0,-9999,N/A,29.49,10.0,South,11.5,-,N/A,,Clear,190,2013-05-14 08:15:00
3:35 AM,62.6,-9999,N/A,29.48,10.0,SSW,11.5,-,N/A,,Clear,200,2013-05-14 08:35:00
3:55 AM,64.4,-9999,N/A,29.51,10.0,SW,13.8,-,N/A,,Partly Cloudy,220,2013-05-14 08:55:00
4:15 AM,62.6,-9999,N/A,29.50,10.0,SSW,6.9,-,N/A,,Partly Cloudy,200,2013-05-14 09:15:00
4:35 AM,59.0,-9999,N/A,29.48,10.0,South,5.8,-,N/A,,Clear,190,2013-05-14 09:35:00
4:55 AM,64.4,-9999,N/A,29.48,10.0,WSW,11.5,-,N/A,,Clear,240,2013-05-14 09:55:00
5:15 AM,71.6,-9999,N/A,29.49,10.0,West,28.8,36.8,N/A,,Clear,260,2013-05-14 10:15:00
5:35 AM,66.2,-9999,N/A,29.55,10.0,West,27.6,34.5,N/A,Rain,Light Rain,260,2013-05-14 10:35:00
5:55 AM,64.4,-9999,N/A,29.58,7.0,West,33.4,42.6,N/A,Rain,Light Rain,280,2013-05-14 10:55:00
6:15 AM,60.8,-9999,N/A,29.60,3.0,West,26.5,38.0,0.03,Rain,Rain,270,2013-05-14 11:15:00
6:35 AM,59.0,-9999,N/A,29.60,5.0,West,15.0,21.9,0.07,Rain,Light Rain,270,2013-05-14 11:35:00
6:55 AM,59.0,-9999,N/A,29.57,7.0,NW,10.4,-,0.07,Rain,Light Rain,310,2013-05-14 11:55:00
7:15 AM,59.0,-9999,N/A,29.54,9.0,South,4.6,-,N/A,Rain,Light Rain,190,2013-05-14 12:15:00
7:35 AM,59.0,-9999,N/A,29.50,10.0,SSE,9.2,-,N/A,,Scattered Clouds,150,2013-05-14 12:35:00
7:55 AM,59.0,-9999,N/A,29.47,10.0,SSW,9.2,-,N/A,,Clear,200,2013-05-14 12:55:00
8:15 AM,62.6,-9999,N/A,29.47,10.0,South,10.4,-,N/A,,Clear,180,2013-05-14 13:15:00
8:35 AM,62.6,-9999,N/A,29.46,10.0,South,16.1,-,N/A,,Clear,190,2013-05-14 13:35:00
8:55 AM,62.6,-9999,N/A,29.45,10.0,South,18.4,23.0,N/A,,Clear,180,2013-05-14 13:55:00
9:15 AM,64.4,-9999,N/A,29.44,10.0,South,17.3,-,N/A,,Clear,190,2013-05-14 14:15:00
9:35 AM,66.2,-9999,N/A,29.45,10.0,SSW,13.8,-,N/A,,Clear,200,2013-05-14 14:35:00
9:55 AM,68.0,-9999,N/A,29.45,10.0,South,19.6,24.2,N/A,,Clear,190,2013-05-14 14:55:00
10:15 AM,69.8,-9999,N/A,29.44,10.0,South,23.0,26.5,N/A,,Clear,190,2013-05-14 15:15:00
10:35 AM,71.6,-9999,N/A,29.45,10.0,SSW,21.9,27.6,N/A,,Clear,200,2013-05-14 15:35:00
10:55 AM,73.4,-9999,N/A,29.44,10.0,SSW,19.6,27.6,N/A,,Clear,210,2013-05-14 15:55:00
11:15 AM,75.2,-9999,N/A,29.45,10.0,WSW,31.1,41.4,N/A,,Scattered Clouds,250,2013-05-14 16:15:00
11:35 AM,71.6,-9999,N/A,29.46,9.0,West,28.8,48.3,N/A,Rain,Light Rain,260,2013-05-14 16:35:00
11:55 AM,73.4,-9999,N/A,29.45,9.0,West,24.2,39.1,N/A,,Partly Cloudy,260,2013-05-14 16:55:00
12:15 PM,73.4,-9999,N/A,29.45,10.0,WSW,23.0,33.4,N/A,,Clear,250,2013-05-14 17:15:00
12:35 PM,73.4,-9999,N/A,29.45,6.0,West,27.6,36.8,N/A,,Haze,260,2013-05-14 17:35:00
12:55 PM,73.4,-9999,N/A,29.45,7.0,West,31.1,40.3,N/A,,Clear,260,2013-05-14 17:55:00
1:15 PM,73.4,-9999,N/A,29.45,9.0,WSW,25.3,40.3,N/A,,Clear,250,2013-05-14 18:15:00
1:35 PM,73.4,-9999,N/A,29.45,7.0,WSW,21.9,39.1,N/A,,Clear,250,2013-05-14 18:35:00
1:55 PM,73.4,-9999,N/A,29.45,6.0,West,28.8,44.9,N/A,,Haze,270,2013-05-14 18:55:00
2:15 PM,73.4,-9999,N/A,29.45,3.0,West,28.8,49.5,N/A,Rain,Light Rain,270,2013-05-14 19:15:00
2:35 PM,71.6,-9999,N/A,29.45,3.0,West,40.3,49.5,N/A,Rain,Light Rain,260,2013-05-14 19:35:00
2:55 PM,69.8,-9999,N/A,29.46,4.0,West,34.5,51.8,N/A,Rain,Light Rain,280,2013-05-14 19:55:00
3:15 PM,71.6,-9999,N/A,29.46,10.0,West,27.6,38.0,N/A,,Mostly Cloudy,280,2013-05-14 20:15:00
3:35 PM,71.6,-9999,N/A,29.47,8.0,West,32.2,50.6,N/A,Rain,Light Rain,280,2013-05-14 20:35:00
3:55 PM,71.6,-9999,N/A,29.47,4.0,West,29.9,44.9,N/A,,Haze,280,2013-05-14 20:55:00
4:15 PM,71.6,-9999,N/A,29.48,7.0,West,33.4,43.7,N/A,,Partly Cloudy,280,2013-05-14 21:15:00
4:35 PM,69.8,-9999,N/A,29.49,8.0,NW,25.3,38.0,N/A,,Scattered Clouds,310,2013-05-14 21:35:00
4:55 PM,66.2,-9999,N/A,29.53,4.0,NNW,27.6,46.0,N/A,Rain,Light Rain,330,2013-05-14 21:55:00
5:15 PM,68.0,-9999,N/A,29.55,5.0,NW,33.4,43.7,N/A,Rain,Light Rain,320,2013-05-14 22:15:00
5:35 PM,66.2,-9999,N/A,29.57,5.0,NNW,33.4,48.3,N/A,Rain,Light Rain,330,2013-05-14 22:35:00
5:55 PM,64.4,-9999,N/A,29.60,9.0,North,29.9,46.0,N/A,Rain,Light Rain,350,2013-05-14 22:55:00
6:15 PM,66.2,-9999,N/A,29.60,10.0,NNW,26.5,34.5,N/A,,Scattered Clouds,330,2013-05-14 23:15:00
6:35 PM,66.2,-9999,N/A,29.61,10.0,NNW,26.5,34.5,N/A,,Clear,340,2013-05-14 23:35:00
6:55 PM,66.2,-9999,N/A,29.63,10.0,NNW,24.2,41.4,N/A,,Clear,340,2013-05-14 23:55:00
7:15 PM,66.2,-9999,N/A,29.64,10.0,North,17.3,32.2,N/A,,Clear,350,2013-05-15 00:15:00
7:35 PM,66.2,-9999,N/A,29.65,10.0,NNW,15.0,26.5,N/A,,Clear,340,2013-05-15 00:35:00
7:55 PM,66.2,-9999,N/A,29.66,10.0,NNW,18.4,24.2,N/A,,Clear,330,2013-05-15 00:55:00
8:15 PM,66.2,-9999,N/A,29.67,10.0,NNW,15.0,18.4,N/A,,Clear,330,2013-05-15 01:15:00
8:35 PM,64.4,-9999,N/A,29.68,10.0,North,8.1,-,N/A,,Clear,350,2013-05-15 01:35:00
8:55 PM,62.6,-9999,N/A,29.68,10.0,NNW,6.9,-,N/A,,Clear,340,2013-05-15 01:55:00
9:15 PM,60.8,-9999,N/A,29.69,10.0,NNW,4.6,-,N/A,,Clear,330,2013-05-15 02:15:00
9:55 PM,57.2,-9999,N/A,29.71,10.0,West,3.5,-,N/A,,Clear,270,2013-05-15 02:55:00
10:15 PM,53.6,-9999,N/A,29.71,10.0,SW,3.5,-,N/A,,Clear,230,2013-05-15 03:15:00
10:35 PM,50.0,-9999,N/A,29.71,10.0,SW,4.6,-,N/A,,Clear,230,2013-05-15 03:35:00
11:15 PM,55.4,-9999,N/A,29.72,10.0,SW,9.2,-,N/A,,Clear,220,2013-05-15 04:15:00
11:35 PM,55.4,-9999,N/A,29.73,10.0,SW,9.2,-,N/A,,Clear,230,2013-05-15 04:35:00
11:55 PM,55.4,-9999,N/A,29.73,10.0,SW,8.1,-,N/A,,Clear,230,2013-05-15 04:55:00